Flag for Canada Weather past 2 weeks in Saint John, New Brunswick, Canada

Now
50 °F

Light rain. Fog.


Feels Like: 45 °F
Forecast: N/A
Wind: 15 mph from Northeast

Location: Saint John

Current Time: Oct 23, 2014 at 6:38:24 PM

Latest Report: Oct 23, 2014 at 6:00 PM


Visibility: 5 mi

Pressure: 29.88 "Hg

Humidity: 94%

Dew point: 48 °F

Location of Saint JohnLocation

Historic Weather in Saint John — Graph

°F

Saint John temperature yesterday

Maximum temperature yesterday: 52 °F (at 11:00 AM)
Minimum temperature yesterday: 45 °F (at 2:00 AM)
Average temperature yesterday: 47 °F

Past Weeks' High & Low Weather Summary

 TemperatureHumidityPressure
High68 °F (Oct 15, 3:00 PM)100% (Oct 8, 8:00 PM)30.33 "Hg (Oct 8, 8:00 PM)
Low28 °F (Oct 12, 5:00 AM)39% (Oct 12, 4:00 PM)29.48 "Hg (Oct 19, 3:00 AM)
Average51 °F86%29.98 "Hg
* Reported Oct 8 5:00 PM — Oct 23 5:00 PM, Saint John, Weather by CustomWeather, © 2014

Note: Actual official high and low records may vary slightly from our data, if they occured in-between our weather recording intervals... More about our weather records

Advertising

Saint John weather history for previous 24 hours

 ConditionsComfort  
Time TempWeatherWind HumidityBarometerVisibility
5:00 PM
Oct 23
52 °FLight rain. Overcast.15 mph88%29.92 "Hg10 mi
4:00 PM52 °FOvercast.16 mph88%29.92 "Hg15 mi
3:00 PM52 °FOvercast.14 mph88%29.95 "Hg10 mi
2:00 PM50 °FOvercast.13 mph94%29.97 "Hg10 mi
1:00 PM50 °FLight rain. Fog.15 mph94%30.00 "Hg6 mi
12:00 PM50 °FLight rain. Fog.13 mph94%30.03 "Hg3 mi
11:00 AM50 °FLight rain. Overcast.13 mph94%30.04 "Hg10 mi
10:00 AM52 °FLight rain. Overcast.18 mph88%30.04 "Hg10 mi
9:00 AM52 °FOvercast.24 mph88%30.06 "Hg10 mi
8:00 AM52 °FOvercast.18 mph88%30.06 "Hg10 mi
7:00 AM50 °FLight rain. Fog.16 mph94%30.07 "Hg3 mi
6:00 AM50 °FLight rain. Fog.17 mph94%30.08 "Hg3 mi
5:00 AM50 °FLight rain. Fog.17 mph94%30.09 "Hg3 mi
4:00 AM50 °FLight rain. Fog.17 mph94%30.11 "Hg3 mi
3:00 AM50 °FLight rain. Fog.18 mph94%30.13 "Hg5 mi
2:00 AM48 °FLight rain. Mostly cloudy.17 mph100%30.14 "Hg10 mi
1:00 AM48 °FLight rain. Low clouds.10 mph100%30.18 "Hg15 mi
12:00 AM48 °FOvercast.12 mph94%30.19 "Hg8 mi
11:00 PM
Oct 22
46 °FLight rain. Fog.13 mph100%30.19 "Hg3 mi
10:00 PM46 °FLight rain. Fog.15 mph93%30.20 "Hg2 mi
9:00 PM46 °FLight rain. Fog.13 mph93%30.21 "Hg4 mi
8:00 PM45 °FLight rain. Fog.14 mph100%30.20 "Hg3 mi
7:00 PM45 °FLight rain. Mostly cloudy.17 mph100%30.21 "Hg8 mi
6:48 PM45 °FLight rain. Mostly cloudy.16 mph100%30.21 "Hg8 mi
6:00 PM45 °FLight rain. Fog.23 mph100%30.22 "Hg6 mi
Weather by CustomWeather, © 2014

See weather overviewHow to use our weather pages